Regional Weather Roundup
Issued by NWS

Home | Current Version | Previous Version | Text Only | Print | Product List | Glossary Off
Versions: 1 2 3 4 5 6 7 8 9 10 11 12 13 14 15 16 17 18 19 20 21 22 23 24 25 26 27 28 29 30 31 32 33 34 35 36 37 38 39 40 41 42 43 44 45 46 47 48 49 50

000
ASUS45 KBOU 272307
RWRCO

WEATHER ROUNDUP FOR COLORADO
NATIONAL WEATHER SERVICE DENVER/BOULDER CO
500 PM MDT FRI MAY 27 2016

NOTE: "FAIR" INDICATES FEW OR NO CLOUDS BELOW 12000 FEET WITH NO
SIGNIFICANT WEATHER AND/OR OBSTRUCTIONS TO VISIBILITY.

COZ001>005-013-030-031-280000-
...NORTHWEST COLORADO...

CITY           SKY/WX    TMP DP  RH WIND       PRES   REMARKS
CRAIG          CLOUDY    56  40  55 E13       29.95R
HAYDEN         CLOUDY    48  37  66 NE10      29.99R
MEEKER         LGT RAIN  48  41  76 NE10      29.99R
MOUNT WERNER   NOT AVBL
STEAMBOAT SPGS PTSUNNY   49  36  61 W17G25    29.99R
WALDEN         FAIR      54  28  37 N10       29.98R
$$

COZ006>008-011-280000-
...WEST CENTRAL VALLEYS...

CITY           SKY/WX    TMP DP  RH WIND       PRES   REMARKS
GRAND JUNCTION FAIR      68  31  25 N10       29.87S
MONTROSE       FAIR      64  31  28 W18       29.94R
EAGLE          PTSUNNY   52  39  62 CALM      29.99R
RIFLE          FAIR      62  39  42 E14       29.92R
DELTA          PTSUNNY   70  34  26 SW17G29   29.90S
NUCLA          FAIR      63  32  31 NW8       29.95S
$$

COZ017>023-064>068-280000-
...SOUTHWEST COLORADO...

CITY           SKY/WX    TMP DP  RH WIND       PRES   REMARKS
DURANGO        CLOUDY    59  32  36 N16       29.93R
CORTEZ         PTSUNNY   67  27  22 N22G29    29.90S
PAGOSA SPRINGS TSTM      44  33  65 N3        30.01R
TELLURIDE      FAIR      47  29  49 SW5       30.09F
WOLF CREEK PAS PTSUNNY   32  28  86 SW9       30.18S WCI  24
$$

COZ009-010-012-014-032>034-037-058>063-280000-
...CENTRAL COLORADO...

CITY           SKY/WX    TMP DP  RH WIND       PRES   REMARKS
ASPEN          CLOUDY    49  33  54 N12       30.01R
BUENA VISTA    PTSUNNY   53  30  41 NW35G44   29.93R
COPPER MTN     NOT AVBL
BERTHOUD PASS  CLOUDY    27  18  69 N20       30.12S WCI  13
COTTONWOOD PAS FAIR      52  21  30 SW15G26   30.02S
GUNNISON       FAIR      54  28  37 NW17G29   30.02R
KREMMLING      FAIR      54  30  40 NE21G28   29.96S
LEADVILLE      CLOUDY    39  29  67 N14G20    30.06R
MONARCH PASS   FLURRIES  32  28  86 W37G43    30.22R WCI  16
SALIDA         PTSUNNY   62  26  25 NE8       29.97S
SUNLIGHT       PTSUNNY   41  34  75 CALM      30.16R
WILKERSON PASS FAIR      34  32  93 NE3       30.12R
$$

COZ069>075-280000-
...SAN LUIS VALLEY/SANGRE DE CRISTO MOUNTAINS...

CITY           SKY/WX    TMP DP  RH WIND       PRES   REMARKS
ALAMOSA        LGT RAIN  45  36  70 S14       29.95F
LA VETA PASS   FOG       39  36  87 NE6       30.07R VSB 1/2
SAGUACHE       PTSUNNY   59  27  29 NW5       29.93S
$$

COZ035-036-038>040-280000-
...NORTHERN COLORADO FRONT RANGE...

CITY           SKY/WX    TMP DP  RH WIND       PRES   REMARKS
DENVER INTL AP PTSUNNY   57  42  57 NE13      29.89S
DMNS CITY PARK   N/A     59  41  51 NE9G18    29.90S
AURORA         PTSUNNY   56  44  64 NE12      29.91R
FRONT RANGE AP PTSUNNY   57  41  54 NE14G24   29.90S
ERIE MUNI ARPT FAIR      57  43  58 CALM      29.90R
BOULDER MUN AP CLOUDY    54  43  66 W5        29.91R
CENTENNIAL     PTSUNNY   56  39  53 N10       29.91S
BROOMFIELD     PTSUNNY   57  43  58 NW12      29.92S
FORT COLLINS   FAIR      36 N/A N/A E10       29.90S
LONGMONT       PTSUNNY   60  45  57 N6        29.92R
$$

COZ041-046-047-076>085-087-088-280000-
...PIKES PEAK/PALMER DIVIDE AND SOUTHERN FOOTHILLS...

CITY           SKY/WX    TMP DP  RH WIND       PRES   REMARKS
COLO. SPRINGS  PTSUNNY   59  37  44 N23G29    29.91R
A. F. ACADEMY  FAIR      55  37  50 NW16      29.92R
SCHRIEVER AFB  NOT AVBL
ELLICOTT       FAIR     N/A N/A N/A NE20G25   29.88R
FALCON         PTSUNNY   55  37  51 MISG      29.94R
FORT CARSON    FAIR      60  40  47 N24G31    29.87S
LIMON          LGT RAIN  47  44  90 N14       29.86F
MONUMENT HILL  FAIR      50  37  62 N15G21    29.95S
TRINIDAD       FAIR      61  38  42 N13       29.90R
$$

COZ042>045-048>051-090-091-280000-
...NORTHEAST COLORADO...

CITY           SKY/WX    TMP DP  RH WIND       PRES   REMARKS
GREELEY ARPT   FAIR      61  45  55 E13G20    29.88S
AKRON          FAIR      55  44  66 N17       29.85S
BURLINGTON     TSTM      51  46  83 N21       29.81R
WRAY           NOT AVBL
STERLING       FAIR      59  46  63 N15G25    29.83F
HOLYOKE        FAIR      54  50  87 N16       29.81F
FORT MORGAN    FAIR      60  42  51 N14G25    29.87S
$$

COZ086-089-092>099-280000-
...SOUTHEAST COLORADO...

CITY           SKY/WX    TMP DP  RH WIND       PRES   REMARKS
PUEBLO         LGT RAIN  66  40  38 N23       29.85R
LA JUNTA       FAIR      60  46  59 N24G35    29.82R
LAMAR          FAIR      59  47  64 N15G25    29.76R
SPRINGFIELD      N/A     62  45  53 NW28G39   29.78R
$$



USA.gov is the U.S. government's official web portal to all federal, state and local government web resources and services.